Manchester, NH

6:32 AM EST on December 18, 2017 (GMT -0500)
Manchester

Weather History for KMHT - October, 2011

Change the Weather History Date:

Tuesday, October 25, 2011

  Actual Average Record
Temperature  
Mean Temperature 50 °F 48 °F  
Max Temperature 59 °F 58 °F 77 °F (2001)
Min Temperature 44 °F 38 °F 20 °F (1969)
Degree Days  
Heating Degree Days 14 17  
Month to date heating degree days 336  
Since 1 July heating degree days 479  
Cooling Degree Days 0 0  
Month to date cooling degree days 0  
Year to date cooling degree days 638  
Moisture  
Dew Point 37 °F    
Average Humidity 63    
Maximum Humidity 97    
Minimum Humidity 36    
Precipitation  
Precipitation 0.01 in 0.12 in 1.92 in (1951)
Month to date precipitation 3.42  
Year to date precipitation 36.49  
Snow  
Snow 0.00 in - - ()
Month to date snowfall  
Since 1 July snowfall  
Snow Depth -    
Sea Level Pressure  
Sea Level Pressure 29.93 in    
Wind  
Wind Speed 4 mph (WNW)    
Max Wind Speed 16 mph    
Max Gust Speed 29 mph    
Visibility 9 miles    
Events      
T = Trace of Precipitation, MM = Missing Value Source: NWS Daily Summary

Daily Weather History Graph

Daily Weather History Graph

Search for Another Location

Airport or City:

Trip Planner

Search our weather history database for the weather conditions in past years. The results will help you decide how hot, cold, wet, or windy it might be!

Date:

Astronomy

Oct. 25, 2011 Rise Set
Actual Time 7:10 AM EDT 5:48 PM EDT
Civil Twilight 6:41 AM EDT 6:17 PM EDT
Nautical Twilight 6:08 AM EDT 6:50 PM EDT
Astronomical Twilight 5:35 AM EDT 7:23 PM EDT
Moon 5:38 AM EDT (10/25) 4:47 PM EDT (10/25)
Length of Visible Light 11h 35m
Length of Day
10h 37m
Waning Crescent, 2% of the Moon is Illuminated
Oct 25
Waning Crescent
Oct 26
New
Nov 2
First Quarter
Nov 10
Full
Nov 18
Last Quarter

Hourly Weather History & Observations

Time (EDT) Temp. Windchill Dew Point Humidity Pressure Visibility Wind Dir Wind Speed Gust Speed Precip Events Conditions
12:53 AM 50.0 °F - 46.9 °F 89% 29.94 in 9.0 mi Calm Calm - 0.01 in   Overcast
1:53 AM 50.0 °F - 48.0 °F 93% 29.93 in 7.0 mi SSE 3.5 mph - N/A   Overcast
2:50 AM 48.2 °F - 46.4 °F 93% 29.88 in 1.0 mi Calm Calm - N/A   Partly Cloudy
2:53 AM 48.0 °F - 46.9 °F 96% 29.92 in 1.0 mi Calm Calm - N/A   Partly Cloudy
3:53 AM 46.9 °F - 46.0 °F 97% 29.91 in 0.8 mi Calm Calm - N/A   Mist
4:19 AM 46.4 °F 45.2 °F 44.6 °F 93% 29.87 in 10.0 mi South 3.5 mph - N/A   Clear
4:53 AM 46.9 °F - 43.0 °F 86% 29.91 in 10.0 mi Calm Calm - N/A   Clear
5:53 AM 44.1 °F - 41.0 °F 89% 29.91 in 10.0 mi Calm Calm - N/A   Clear
6:53 AM 45.0 °F - 41.0 °F 86% 29.92 in 10.0 mi Calm Calm - N/A   Clear
7:53 AM 44.6 °F - 39.2 °F 81% 29.89 in 10.0 mi Calm Calm - N/A   Clear
8:53 AM 48.9 °F - 41.0 °F 74% 29.94 in 10.0 mi Variable 3.5 mph - N/A   Partly Cloudy
9:53 AM 52.0 °F - 39.0 °F 61% 29.94 in 10.0 mi West 13.8 mph 18.4 mph N/A   Partly Cloudy
10:53 AM 54.0 °F - 36.0 °F 51% 29.93 in 10.0 mi West 13.8 mph 24.2 mph N/A   Scattered Clouds
11:53 AM 55.9 °F - 35.1 °F 45% 29.92 in 10.0 mi NW 16.1 mph 21.9 mph N/A   Mostly Cloudy
12:53 PM 57.0 °F - 33.1 °F 40% 29.89 in 10.0 mi NW 15.0 mph 21.9 mph N/A   Mostly Cloudy
1:53 PM 57.9 °F - 32.0 °F 37% 29.89 in 10.0 mi NW 12.7 mph 21.9 mph N/A   Mostly Cloudy
2:53 PM 57.2 °F - 30.2 °F 36% 29.85 in 10.0 mi NW 13.8 mph 23.0 mph N/A   Scattered Clouds
3:53 PM 57.0 °F - 30.0 °F 36% 29.90 in 10.0 mi WNW 11.5 mph 28.8 mph N/A   Partly Cloudy
4:53 PM 55.9 °F - 30.0 °F 37% 29.92 in 10.0 mi WNW 12.7 mph 24.2 mph N/A   Partly Cloudy
5:53 PM 54.0 °F - 30.0 °F 40% 29.94 in 10.0 mi WNW 11.5 mph 18.4 mph N/A   Partly Cloudy
6:53 PM 53.1 °F - 28.9 °F 40% 29.96 in 10.0 mi West 8.1 mph - N/A   Partly Cloudy
7:53 PM 51.1 °F - 30.0 °F 44% 29.98 in 10.0 mi WNW 4.6 mph - N/A   Clear
8:53 PM 50.0 °F - 30.2 °F 47% 29.95 in 10.0 mi NW 10.4 mph - N/A   Clear
9:53 PM 48.9 °F - 28.9 °F 46% 30.00 in 10.0 mi WNW 9.2 mph - N/A   Clear
10:53 PM 46.9 °F - 28.9 °F 50% 29.99 in 10.0 mi Calm Calm - N/A   Clear
11:53 PM 44.1 °F 41.5 °F 30.9 °F 60% 30.00 in 10.0 mi West 4.6 mph - N/A   Clear